Location: Arcizac
(43.0933°N, 0.0112°E)
Time: 12:46:27
(UTC+00:00)

Cosmos 1553 Rocket - Pass Details

Date: 14 December 2019
Orbit: 942 x 1007 km, 82.9° (Epoch: 24 January)

Event Time Altitude Azimuth Distance (km) Brightness Sun altitude
Rises 17:34:22 0° 357° (N) 3,728 6.9 -12.1°
Reaches altitude 10° 17:37:00 10° 3° (N) 2,782 6.2 -12.6°
Maximum altitude 17:43:11 48° 77° (ENE) 1,288 4.2 -13.6°
Drops below altitude 10° 17:49:20 10° 151° (SSE) 2,777 6.3 -14.7°
Sets 17:51:58 0° 157° (SSE) 3,721 7.0 -15.2°
